Find Starlink 31585

NORAD ID: 59608 Int'l Des: 2024-080 Owner: SPXS Country: US Constellation: starlink operational
LEOCIRCULAR

リアルタイム位置

3D地球を読み込み中...

Starlink 31585について

説明を読み込み中...

次回通過

Passes for default location (London). Set your location on the main map for personalized predictions.

高度履歴

Loading altitude history...

軌道要素

1 59608U 24080H 26127.24535678 -.00000242 00000-0 74332-6 0 9994
2 59608 43.0018 63.2677 0001094 269.6569 90.4157 15.27573375113549
Epoch: May 7, 2026 • Age: 12 hours

現在のステータス

高度 485.6 km
速度 7.63 km/s
衛星直下点 37.05°N, 60.54°E
打ち上げ日 Apr 28, 2024
運用期間 2 years
タイプ internet

技術仕様

分類 Payload
質量 730.00 kg
乾燥質量 700.00 kg
総質量 730.00 kg
長さ 0.30 m
直径 4.10 m
スパン 29.00 m
形状 Box + pan
製造者 SPXS
バスタイプ Starlink V2M
フェーズステータス In Orbit
所有者/国 SPXS/US

Most Searched